WB0RXX Weather Reports


Display with metric or nautical units.
time (UTC)temp
F
wind
direction
speed
MPH
gust
MPH
rain 1hr
in
rain 24hr
in
rain mn
in
humidity
%
barometer
mb
20260506205003 48 289 5.0 12.0 0.00 0.00 0.00 44 1016.8
20260506204003 48 354 1.0 4.0 0.00 0.00 0.00 48 1017.0
20260506203004 47 313 1.0 4.0 0.00 0.00 0.00 48 1016.9
20260506202018 47 324 4.0 10.0 0.00 0.00 0.00 47 1017.0
20260506201004 47 298 1.0 4.0 0.00 0.00 0.00 46 1017.1
20260506200004 48 301 3.0 5.0 0.00 0.00 0.00 47 1017.1
20260506195003 47 327 2.0 3.0 0.00 0.00 0.00 48 1017.2
20260506194003 46 314 3.0 4.0 0.00 0.00 0.00 48 1017.3
20260506193004 46 267 2.0 3.0 0.00 0.00 0.00 48 1017.3
20260506192004 46 257 1.0 3.0 0.00 0.00 0.00 49 1017.3
20260506191004 45 307 1.0 5.0 0.00 0.00 0.00 50 1017.4
20260506190004 45 273 3.0 3.0 0.00 0.00 0.00 50 1017.5
20260506185018 45 278 2.0 3.0 0.00 0.00 0.00 51 1017.7
20260506184004 45 347 4.0 6.0 0.00 0.00 0.00 50 1017.6
20260506183005 45 19 3.0 4.0 0.00 0.00 0.00 51 1017.8
20260506182004 45 353 3.0 6.0 0.00 0.00 0.00 54 1017.8
20260506181004 44 354 3.0 6.0 0.00 0.00 0.00 53 1017.8
20260506180005 44 4 3.0 9.0 0.00 0.00 0.00 53 1017.9
20260506175004 43 295 4.0 9.0 0.00 0.00 0.00 52 1018.0
20260506174004 43 312 2.0 4.0 0.00 0.00 0.00 52 1018.1
20260506173004 43 304 3.0 11.0 0.00 0.00 0.00 53 1018.2
20260506172003 42 323 4.0 8.0 0.00 0.00 0.00 53 1018.2
20260506171004 42 313 6.0 9.0 0.00 0.00 0.00 53 1018.2
20260506170004 42 348 5.0 11.0 0.00 0.00 0.00 53 1018.3
20260506165003 42 293 3.0 6.0 0.00 0.00 0.00 53 1018.3
20260506164004 42 328 2.0 1.0 0.00 0.00 0.00 53 1018.2
20260506163002 41 6 1.0 3.0 0.00 0.00 0.00 55 1018.3
20260506162018 41 360 7.0 11.0 0.00 0.00 0.00 53 1018.3
20260506161004 41 334 3.0 5.0 0.00 0.00 0.00 56 1018.4
20260506160005 41 282 3.0 7.0 0.00 0.00 0.00 57 1018.3
20260506155004 41 357 2.0 5.0 0.00 0.00 0.00 57 1018.3
20260506154003 41 325 3.0 8.0 0.00 0.00 0.00 58 1018.3
20260506153004 40 306 3.0 9.0 0.00 0.00 0.00 58 1018.2
20260506152002 40 303 1.0 2.0 0.00 0.00 0.00 59 1018.2
20260506151003 40 344 4.0 10.0 0.00 0.00 0.00 58 1018.2
20260506150003 40 353 2.0 4.0 0.00 0.00 0.00 60 1018.2
20260506145004 40 7 4.0 4.0 0.00 0.00 0.00 60 1018.1
20260506144004 40 317 0.0 3.0 0.00 0.00 0.00 62 1018.2
20260506143003 39 334 2.0 9.0 0.00 0.00 0.00 62 1018.2
20260506142004 39 343 1.0 3.0 0.00 0.00 0.00 63 1018.2
20260506141003 39 315 1.0 1.0 0.00 0.00 0.00 63 1018.1
20260506140004 39 282 1.0 2.0 0.00 0.00 0.00 67 1018.1
20260506135002 38 296 0.0 0.0 0.00 0.00 0.00 69 1018.0
20260506134003 38 297 1.0 3.0 0.00 0.00 0.00 70 1018.0
20260506133004 38 323 0.0 0.0 0.00 0.00 0.00 71 1017.9
20260506132003 38 323 0.0 0.0 0.00 0.00 0.00 71 1017.8
20260506131004 38 345 0.0 0.0 0.00 0.00 0.00 71 1017.8
20260506130004 38 345 0.0 0.0 0.00 0.00 0.00 71 1017.7
20260506125003 38 345 0.0 0.0 0.00 0.00 0.00 70 1017.6
20260506124004 37 345 0.0 0.0 0.00 0.00 0.00 72 1017.5
20260506123018 37 360 0.0 0.0 0.00 0.00 0.00 72 1017.4
20260506122002 37 360 0.0 3.0 0.00 0.00 0.00 70 1017.3
20260506121003 37 360 0.0 0.0 0.00 0.00 0.00 71 1017.1
20260506120002 37 360 0.0 0.0 0.00 0.00 0.00 70 1017.0
20260506115003 37 360 0.0 0.0 0.00 0.00 0.00 70 1016.9
20260506114002 37 360 0.0 0.0 0.00 0.00 0.00 70 1016.7
20260506113003 37 360 0.0 0.0 0.00 0.00 0.00 70 1016.4
20260506112004 37 360 0.0 0.0 0.00 0.00 0.00 70 1016.5
20260506111002 37 360 0.0 0.0 0.00 0.00 0.00 70 1016.3
20260506110003 37 360 0.0 1.0 0.00 0.00 0.00 70 1016.3
20260506105004 37 340 0.0 0.0 0.00 0.00 0.00 70 1016.2
20260506104003 37 340 0.0 1.0 0.00 0.00 0.00 70 1016.2
20260506103004 37 340 0.0 0.0 0.00 0.00 0.00 70 1016.2
20260506102003 37 340 0.0 0.0 0.00 0.00 0.00 70 1016.3
20260506101004 37 340 0.0 0.0 0.00 0.00 0.00 69 1016.3
20260506100003 37 340 0.0 0.0 0.00 0.00 0.00 70 1016.3
20260506095005 37 340 0.0 2.0 0.00 0.00 0.00 70 1016.3
20260506094003 37 340 0.0 2.0 0.00 0.00 0.00 71 1016.3
20260506093004 37 340 0.0 0.0 0.00 0.00 0.00 71 1016.1
20260506092003 36 342 0.0 3.0 0.00 0.00 0.00 71 1016.1
20260506091005 36 294 0.0 1.0 0.00 0.00 0.00 71 1015.9
20260506090003 36 294 0.0 0.0 0.00 0.00 0.00 71 1015.9
20260506085005 36 294 0.0 0.0 0.00 0.00 0.00 71 1015.9
20260506084004 36 294 1.0 0.0 0.00 0.00 0.00 70 1016.0
20260506083004 36 294 0.0 0.0 0.00 0.00 0.00 69 1015.9
20260506082003 36 294 1.0 3.0 0.00 0.00 0.00 69 1015.9
20260506081004 35 342 0.0 0.0 0.00 0.00 0.00 68 1015.8
20260506073004 35 342 1.0 2.0 0.00 0.00 0.00 68 1015.7
20260506072003 35 342 0.0 1.0 0.00 0.00 0.00 67 1015.8
20260506071004 36 342 0.0 0.0 0.00 0.00 0.00 66 1016.0
20260506062019 37 342 0.0 0.0 0.00 0.00 0.00 63 1015.7
20260506061004 37 342 0.0 0.0 0.00 0.00 0.00 63 1015.7
20260506051004 39 345 2.0 3.0 0.00 0.00 0.00 59 1015.7
20260506045004 39 355 1.0 3.0 0.00 0.00 0.00 59 1015.5
20260506044004 39 355 0.0 2.0 0.00 0.00 0.00 59 1015.6
20260506043003 39 355 0.0 1.0 0.00 0.00 0.00 58 1015.5
20260506042018 40 355 1.0 1.0 0.00 0.00 0.00 57 1015.5
20260506041004 40 355 0.0 2.0 0.00 0.00 0.00 56 1015.5
20260506040003 40 5 1.0 4.0 0.00 0.00 0.00 56 1015.4
20260506035004 40 351 1.0 0.0 0.00 0.00 0.00 56 1015.4
20260506034004 40 340 1.0 3.0 0.00 0.00 0.00 56 1015.3
20260506033005 40 320 2.0 4.0 0.00 0.00 0.00 55 1015.2
20260506032002 40 337 1.0 4.0 0.00 0.00 0.00 55 1015.1
20260506031004 40 337 0.0 1.0 0.00 0.00 0.00 55 1015.0
20260506030004 41 333 0.0 2.0 0.00 0.00 0.00 54 1015.0
20260506025004 41 355 2.0 4.0 0.00 0.00 0.00 53 1014.9
20260506024003 41 355 1.0 4.0 0.00 0.00 0.00 53 1014.7
20260506023004 42 355 0.0 1.0 0.00 0.00 0.00 53 1014.6
20260506022004 42 355 3.0 3.0 0.00 0.00 0.00 52 1014.5
20260506021004 42 355 0.0 1.0 0.00 0.00 0.00 52 1014.3
20260506020002 42 5 2.0 3.0 0.00 0.00 0.00 51 1014.2
20260506015004 43 347 3.0 4.0 0.00 0.00 0.00 50 1014.1
20260506014003 43 5 3.0 4.0 0.00 0.00 0.00 50 1014.1
20260506013003 44 28 2.0 6.0 0.00 0.00 0.00 49 1013.9
20260506012003 44 26 1.0 3.0 0.00 0.00 0.00 49 1013.6
20260506011004 44 316 5.0 4.0 0.00 0.00 0.00 48 1013.7
20260506010004 45 22 3.0 5.0 0.00 0.00 0.00 48 1013.8
20260506005004 45 348 6.0 11.0 0.00 0.00 0.00 48 1013.7
20260506004003 46 331 3.0 4.0 0.00 0.00 0.00 48 1013.6
20260506003004 46 346 2.0 5.0 0.00 0.00 0.00 48 1013.4
20260506002003 46 12 2.0 3.0 0.00 0.00 0.00 47 1013.5
20260506001004 46 357 5.0 9.0 0.00 0.00 0.00 46 1013.3
20260506000003 46 348 7.0 10.0 0.00 0.00 0.00 46 1013.2
20260505235004 46 317 3.0 6.0 0.00 0.00 0.00 46 1013.1
20260505234003 46 350 7.0 13.0 0.00 0.00 0.00 46 1013.1
20260505233003 47 309 3.0 5.0 0.00 0.00 0.00 46 1013.0
20260505232004 47 322 6.0 16.0 0.00 0.00 0.00 46 1013.0
20260505231004 47 351 6.0 10.0 0.00 0.00 0.00 45 1012.9
20260505230004 47 333 2.0 3.0 0.00 0.00 0.00 46 1012.8
20260505225004 47 322 7.0 8.0 0.00 0.00 0.00 45 1012.8
20260505224003 47 306 3.0 7.0 0.00 0.00 0.00 45 1012.9
20260505223005 48 340 6.0 9.0 0.00 0.00 0.00 45 1012.8
20260505222003 48 351 5.0 10.0 0.00 0.00 0.00 44 1012.8
20260505221004 48 323 3.0 5.0 0.00 0.00 0.00 44 1012.8
20260505220004 49 314 4.0 7.0 0.00 0.00 0.00 43 1012.6
20260505215005 49 309 1.0 2.0 0.00 0.00 0.00 44 1012.6
20260505214004 49 338 5.0 8.0 0.00 0.00 0.00 42 1012.6
20260505213004 50 304 5.0 9.0 0.00 0.00 0.00 40 1012.5
20260505212004 50 351 4.0 8.0 0.00 0.00 0.00 40 1012.7
20260505211004 50 323 5.0 11.0 0.00 0.00 0.00 41 1012.6
20260505210003 50 326 5.0 9.0 0.00 0.00 0.00 39 1012.6